This demonstration page uses our WeatherBlox Daily Observations layout. Learn more.

Left ArrowRight Arrow

39.08367, -84.50855

Hourly Observations for August 26, 2019

Temp ( °F °C ) Dew Point ( °F °C ) Humidity (%) Winds ( mph kmh ) Pressure ( in mb ) Visibility ( mi km ) Precip ( " mm )
12:53 am 00:53 Cloudy 68 20 61 16.1 78 78 NE 5 7 30.00 1016 10 16 N/A
1:53 am 01:53 Cloudy 68 20 61 16.1 78 78 NNE 5 7 29.99 1016 10 16 N/A
2:53 am 02:53 Cloudy 69 20.6 61 16.1 76 76 NNE 3 6 29.97 1015 10 16 N/A
3:53 am 03:53 Cloudy 69 20.6 62 16.7 78 78 N N/A 29.97 1015 10 16 N/A
4:30 am 04:30 Cloudy 70 21.1 62 16.7 76 76 N N/A 29.97 1015 10 16 N/A
4:37 am 04:37 Cloudy 70 21.1 62 16.7 76 76 N N/A 29.97 1015 10 16 N/A
4:46 am 04:46 Cloudy 70 21.1 62 16.7 76 76 N N/A 29.96 1014 10 16 N/A
4:53 am 04:53 Cloudy 71 21.7 62 16.7 73 73 N N/A 29.96 1015 10 16 N/A
5:44 am 05:44 Cloudy 70 21.1 63 17.2 79 79 N N/A 29.96 1014 10 16 N/A
5:53 am 05:53 Cloudy 70 21.1 64 17.8 82 82 VRB 3 6 29.96 1014 10 16 N/A
6:16 am 06:16 Cloudy with Light Rain 69 20.6 65 18.3 87 87 SSE 7 11 29.96 1014 10 16 0.00 0.00
6:29 am 06:29 Cloudy with Light Rain 69 20.6 65 18.3 87 87 SSE 6 9 29.97 1015 8 13 0.00 0.00
6:53 am 06:53 Cloudy 68 20 65 18.3 90 90 SSE 3 6 29.96 1015 7 11 0.01 0.25
7:53 am 07:53 Cloudy with Mist and Fog 68 20 66 18.9 93 93 VRB 7 11 29.97 1015 4 6 0.00 0.00
8:20 am 08:20 Cloudy with Mist and Fog 68 20 67 19.4 96 96 S 5 7 29.98 1015 3 4 N/A
8:32 am 08:32 Cloudy with Mist and Fog 68 20 67 19.4 96 96 SSE 7 11 29.98 1015 2 3 0.01 0.25
8:40 am 08:40 Cloudy with Light Rain 68 20 67 19.4 96 96 VRB 6 9 29.98 1015 3 4 0.01 0.25
8:50 am 08:50 Cloudy with Mist and Fog 68 20 66 19 94 94 SSE 7 11 29.98 1015 3 5 0.01 0.25
8:53 am 08:53 Cloudy with Light Rain 68 20 67 19.4 96 96 S 7 11 29.98 1015 3 4 0.01 0.25
9:06 am 09:06 Cloudy with Light Rain 68 20 67 19.4 96 96 SSE 7 11 29.98 1015 4 6 0.01 0.25
9:13 am 09:13 Cloudy with Mist and Fog 68 20 67 19.4 96 96 SSE 7 11 29.98 1015 4 6 0.01 0.25
9:43 am 09:43 Cloudy with Light Rain 69 20.6 68 20 96 96 SSE 9 15 29.97 1015 3 5 0.04 1.02
9:53 am 09:53 Cloudy with Rain 70 21.1 68 20 93 93 SSE 8 13 29.97 1015 3 5 0.05 1.27
10:12 am 10:12 Cloudy with Rain 69 20.6 68 20 96 96 SSE 9 15 29.98 1015 2 3 0.04 1.02
10:19 am 10:19 Cloudy with Heavy Rain 70 21.1 68 20 93 93 S 6 9 29.97 1015 2 3 0.06 1.52
10:41 am 10:41 Cloudy with Mist and Fog 70 21.1 68 20 93 93 SSE 6 9 29.97 1015 10 16 0.08 2.03
10:53 am 10:53 Cloudy with Light Rain 70 21.1 68 20 93 93 S 6 9 29.97 1015 6 10 0.08 2.03
11:53 am 11:53 Cloudy with Light Rain 71 21.7 69 20.6 94 94 S 7 11 29.96 1015 10 16 0.00 0.00
12:32 pm 12:32 Cloudy with Light Rain 71 21.7 69 20.6 94 94 SSE 8 13 29.96 1014 7 11 0.01 0.25
12:53 pm 12:53 Cloudy with Light Rain 71 21.7 69 20.6 94 94 SSE 9 15 29.96 1015 8 13 0.02 0.51
1:53 pm 13:53 Cloudy 72 22.2 69 20.6 91 91 S 10 17 29.95 1014 10 16 0.01 0.25
2:53 pm 14:53 Cloudy with Light Rain 71 21.7 70 21.1 96 96 S 8 13 29.94 1014 3 5 0.10 2.54
3:04 pm 15:04 Cloudy with Rain 71 21.7 69 20.6 94 94 SSE 10 17 29.94 1014 3 5 0.01 0.25
3:14 pm 15:14 Cloudy with Light Rain 71 21.7 69 20.6 94 94 S 9 15 29.94 1014 3 5 0.03 0.76
3:43 pm 15:43 Cloudy with Rain 71 21.7 69 20.6 94 94 S 8 13 29.93 1013 3 5 0.08 2.03
3:53 pm 15:53 Cloudy with Rain 71 21.7 69 20.6 94 94 SSE 8 13 29.93 1013 3 5 0.10 2.54
3:59 pm 15:59 Cloudy with Heavy Rain 71 21.7 70 21.1 96 96 S 7 11 29.92 1013 2 3 0.02 0.51
4:09 pm 16:09 Cloudy with Rain 71 21.7 70 21.1 96 96 SE 5 7 29.92 1013 2 2 0.05 1.27
4:19 pm 16:19 Cloudy with Light Rain 71 21.7 70 21.1 96 96 SSE 9 15 29.91 1013 3 5 0.06 1.52
4:53 pm 16:53 Cloudy with Heavy Rain 71 21.7 69 20.6 94 94 SSE 8 13 29.91 1013 3 4 0.13 3.30
5:06 pm 17:06 Cloudy with Rain 71 21.7 70 21.1 96 96 SSE 10 17 29.90 1012 3 5 0.01 0.25
5:09 pm 17:09 Cloudy with Rain 71 21.7 69 20.6 94 94 SE 10 17 29.90 1012 3 4 0.02 0.51
5:17 pm 17:17 Cloudy with Light Rain 71 21.7 69 20.6 94 94 SSE 9 15 29.90 1012 3 4 0.03 0.76
5:21 pm 17:21 Cloudy with Light Rain 71 21.7 69 20.6 94 94 SSE 7 11 29.90 1012 4 6 0.03 0.76
5:32 pm 17:32 Cloudy with Light Rain 71 21.7 69 20.6 94 94 SSE 7 11 29.90 1012 7 11 0.03 0.76
5:45 pm 17:45 Cloudy with Light Rain 71 21.7 69 20.6 94 94 SE 8 13 29.90 1012 8 13 0.04 1.02
5:53 pm 17:53 Cloudy with Light Rain 71 21.7 69 20.6 94 94 SSE 7 11 29.90 1013 4 6 0.04 1.02
6:24 pm 18:24 Cloudy with Light Rain 71 21.7 69 20.6 94 94 S 10 17 29.90 1012 4 6 0.02 0.51
6:32 pm 18:32 Cloudy with Light Rain 71 21.7 69 20.6 94 94 S 6 9 29.90 1012 3 5 0.02 0.51
6:34 pm 18:34 Cloudy with Light Rain 71 21.7 70 21.1 96 96 S 6 9 29.90 1012 3 4 0.03 0.76
6:43 pm 18:43 Cloudy with Light Rain 71 21.7 70 21.1 96 96 S 3 6 29.90 1012 3 5 0.05 1.27
6:53 pm 18:53 Cloudy with Light Rain 71 21.7 69 20.6 94 94 SSE 9 15 29.88 1012 3 5 0.06 1.52
7:14 pm 19:14 Cloudy with Light Rain 71 21.7 69 20.6 94 94 SSE 7 11 29.88 1012 8 13 0.00 0.00
7:31 pm 19:31 Cloudy with Light Rain 71 21.7 69 20.6 94 94 S 9 15 29.89 1012 4 6 0.00 0.00
7:53 pm 19:53 Cloudy with Light Rain 70 21.1 69 20.6 97 97 S 8 13 29.89 1012 4 6 0.01 0.25
8:36 pm 20:36 Cloudy with Light Rain 70 21.1 69 20.6 97 97 S 12 19 29.90 1012 4 6 0.00 0.00
8:53 pm 20:53 Cloudy 70 21.1 69 20.6 97 97 S 10 17 29.89 1012 10 16 0.00 0.00
9:13 pm 21:13 Cloudy 70 21.1 68 20 93 93 S 13 20 29.89 1012 10 16 N/A
9:26 pm 21:26 Cloudy 70 21.1 68 20 93 93 S 15 24 29.89 1012 10 16 N/A
9:53 pm 21:53 Cloudy 70 21.1 69 20.6 97 97 S 15 24 29.89 1012 10 16 N/A
10:53 pm 22:53 Cloudy 70 21.1 68 20 93 93 S 10 17 29.91 1013 10 16 N/A
11:53 pm 23:53 Cloudy with Mist and Fog 70 21.1 69 20.6 97 97 SSW 9 15 29.90 1013 5 8 N/A

Powered by AerisWeather